Location: Unspecified
(0.0000°N, 0.0000°E)
Time: 07:47:49
(UTC+00:00)

USA 136 - Visible Passes

Search period start: 10 June 2023 00:00
Search period end: 20 June 2023 00:00
Orbit: 3538 x 36810 km, 63.6° (Epoch: 27 February)

Date Brightness Start Highest point End Pass type
(mag) Time Alt. Az. Time Alt. Az. Time Alt. Az.
10 Jun 7.4 07:40:51 10° S 18:03:58 24° ENE 18:46:39 10° ESE visible
11 Jun 7.4 07:36:10 10° S 17:59:11 24° ENE 18:42:18 10° ESE visible
12 Jun 7.4 07:31:29 10° S 17:54:23 24° ENE 18:37:28 10° ESE visible
13 Jun 7.4 07:26:47 10° S 17:49:35 24° ENE 18:32:40 10° ESE visible
14 Jun 7.4 07:22:06 10° S 17:44:47 24° ENE 18:27:50 10° ESE visible
15 Jun 7.4 07:17:24 10° S 17:39:59 24° ENE 18:23:01 10° ESE visible
